Location: Beaurecueil
(43.5122°N, 5.5450°E)
Time: 14:04:17
(UTC+00:00)

SL-08 RB Rocket - Pass Details

Date: 18 September 2020
Orbit: 647 x 684 km, 97.8° (Epoch: 29 October)

Event Time Altitude Azimuth Distance (km) Brightness Sun altitude
Exits shadow 19:32:41 11° 182° (S) 2,013 6.0 -20.3°
Maximum altitude 19:36:57 55° 260° (W) 807 4.3 -21.1°
Drops below altitude 10° 19:41:28 10° 338° (NNW) 2,097 6.9 -21.8°
Sets 19:43:44 0° 343° (NNW) 3,009 7.7 -22.2°
